Probability
0 0 0 0 0 0 0 0 0 0 0 3 0 0 0 3 3 3 0 3 3 6 6 19 26 29 32 35 29 32 32 35 35 35 35 35 29 23 23 19 19 16 19 23
0 0 0 0 0 0 0 0 0 3 3 3 0 0 0 3 3 6 3 3 3 6 16 23 29 32 29 29 32 35 35 39 39 32 35 35 35 32 26 26 19 13 16 16
0 0 0 0 0 0 0 0 0 3 3 3 3 3 3 6 10 6 6 6 0 10 19 26 32 32 26 32 45 45 42 35 39 35 39 35 29 26 26 19 16 16 13 13
0 0 0 0 0 0 0 0 3 3 3 3 3 3 3 3 6 6 6 3 3 10 16 23 29 26 32 42 42 42 42 39 39 42 42 42 32 29 29 23 16 16 23 19
0 0 0 0 0 0 0 0 0 3 0 3 3 3 3 3 6 3 3 3 3 10 19 29 29 32 35 39 42 48 48 48 48 42 39 32 32 29 29 29 26 19 16 26
0 0 0 0 0 0 0 0 0 0 0 0 0 3 3 3 3 3 0 3 3 10 19 35 32 42 52 42 48 55 52 52 48 42 39 35 26 29 32 23 23 23 23 26
0 0 0 0 0 0 0 0 0 0 0 0 0 3 3 3 3 6 3 6 6 6 10 29 32 45 48 48 48 52 52 52 48 48 45 42 35 35 26 23 23 23 23 26
0 0 0 0 0 0 0 0 0 0 0 0 3 3 3 0 3 6 3 3 10 13 19 26 29 42 42 42 45 55 58 58 48 45 45 39 35 32 26 26 26 19 19 23
0 0 0 0 0 0 0 0 0 0 0 0 3 3 3 0 0 6 6 0 6 13 16 13 29 29 35 35 45 55 45 55 55 42 48 42 39 39 32 32 29 23 23 26
0 0 0 0 0 0 0 0 0 0 0 0 0 3 3 0 0 3 3 0 3 10 19 19 29 29 39 39 45 48 45 52 52 52 48 45 48 39 35 35 29 23 23 23
0 0 0 0 0 0 0 0 0 0 0 0 0 0 3 0 0 0 3 6 6 10 19 23 35 35 35 45 42 45 48 48 48 45 48 45 45 45 39 32 29 23 23 19
0 0 0 0 0 0 0 0 0 0 0 0 0 0 3 0 0 0 3 10 6 6 19 26 32 42 45 39 39 45 48 48 45 39 35 42 45 39 39 39 29 29 26 32
0 0 0 0 0 0 0 0 0 0 0 0 0 0 0 0 0 0 6 13 10 10 19 29 29 32 39 35 35 45 45 39 42 42 35 35 45 39 42 45 42 42 42 35
0 0 0 0 0 0 0 0 0 0 0 0 0 3 0 0 0 3 10 16 19 19 29 32 32 32 29 26 29 35 42 35 42 39 35 39 45 42 35 35 39 39 39 39
0 0 0 0 0 0 0 0 0 0 0 0 3 3 3 0 0 0 10 13 16 26 29 39 35 26 23 26 29 32 39 35 45 35 39 42 42 35 39 39 39 35 35 35
0 0 0 0 0 0 0 0 0 0 0 3 3 6 3 3 3 6 13 19 23 26 35 39 35 32 32 29 26 26 32 35 39 42 42 35 35 29 32 32 35 29 26 26
0 0 0 0 0 0 0 0 0 0 3 6 6 6 3 3 6 6 13 23 23 19 23 26 29 16 23 35 29 32 32 35 35 32 32 35 35 35 32 32 35 35 29 29
0 0 0 0 0 0 0 0 0 3 3 6 3 6 6 3 6 6 10 19 16 13 13 16 19 19 19 23 29 23 26 29 29 26 32 35 35 35 32 32 35 35 32 26
0 0 0 0 0 0 0 3 3 3 13 10 6 6 10 6 13 19 16 13 10 6 6 13 16 19 19 19 23 26 26 26 26 26 26 29 29 29 26 26 32 35 29 29
0 0 0 0 0 0 3 3 6 6 6 10 10 16 13 10 10 19 19 10 3 6 13 19 23 19 16 16 16 23 23 23 23 16 19 23 26 26 26 26 29 32 29 26
0 0 0 0 0 0 3 3 6 3 3 6 13 13 10 10 6 16 13 6 3 6 10 13 26 23 19 16 16 19 23 23 19 23 19 23 26 26 23 23 29 32 23 23
0 0 0 0 0 0 3 6 6 6 3 3 6 10 10 10 10 13 6 6 3 6 10 13 19 29 19 23 19 16 19 19 23 19 19 26 26 26 23 23 26 26 19 23
0 0 0 0 3 3 3 3 3 3 3 3 6 6 10 10 13 3 6 10 10 13 13 13 19 26 19 19 23 23 19 23 26 23 23 23 26 26 23 23 23 26 23 19
0 0 3 3 3 3 3 3 3 3 3 3 3 10 16 10 6 3 6 6 10 13 16 13 13 26 23 23 19 19 23 26 29 26 26 26 23 26 23 19 19 26 23 19
0 0 0 0 0 0 0 0 3 3 0 0 6 13 10 6 3 3 3 6 6 16 16 16 16 16 23 19 19 19 26 23 23 19 19 19 19 16 16 13 10 16 16 16
0 0 0 0 0 0 0 0 0 0 0 0 0 6 10 6 3 3 3 10 10 10 13 13 16 13 16 19 19 19 23 23 19 16 19 19 16 16 13 10 10 6 3 3
Height
5923 5925 5925 5926 5927 5927 5927 5928 5928 5928 5928 5927 5927 5927 5925 5924 5924 5923 5922 5921 5920 5919 5918 5916 5915 5914 5913 5912 5910 5910 5908 5908 5907 5906 5905 5904 5903 5902 5901 5900 5899 5898 5896 5895
5922 5923 5924 5924 5925 5926 5926 5926 5927 5928 5927 5927 5926 5926 5925 5924 5923 5923 5922 5921 5920 5919 5918 5917 5915 5914 5913 5912 5911 5910 5909 5908 5907 5906 5905 5904 5903 5902 5901 5900 5898 5897 5896 5895
5920 5922 5922 5923 5923 5924 5925 5926 5926 5926 5926 5925 5925 5925 5924 5924 5923 5922 5922 5921 5920 5919 5918 5917 5916 5915 5913 5912 5911 5910 5909 5908 5907 5906 5905 5904 5903 5902 5901 5899 5898 5897 5895 5894
5917 5920 5920 5921 5921 5923 5924 5925 5924 5924 5924 5924 5924 5923 5923 5922 5922 5922 5921 5921 5920 5919 5918 5917 5916 5915 5913 5912 5911 5910 5909 5908 5907 5906 5905 5904 5903 5902 5901 5899 5898 5896 5895 5893
5916 5917 5918 5919 5920 5921 5922 5922 5922 5922 5922 5923 5923 5922 5922 5921 5920 5920 5920 5920 5919 5918 5917 5916 5915 5914 5913 5912 5911 5910 5908 5907 5906 5905 5904 5903 5902 5901 5900 5898 5897 5895 5893 5892
5913 5914 5916 5917 5917 5918 5920 5920 5920 5920 5920 5921 5921 5920 5920 5919 5919 5918 5918 5918 5918 5917 5916 5915 5914 5912 5911 5911 5910 5909 5908 5906 5906 5905 5904 5903 5901 5900 5899 5897 5895 5894 5892 5890
5910 5912 5913 5914 5915 5916 5917 5918 5917 5917 5917 5918 5918 5917 5917 5916 5916 5916 5916 5916 5915 5914 5913 5913 5912 5911 5910 5909 5908 5907 5906 5905 5904 5903 5902 5901 5900 5898 5897 5895 5894 5892 5890 5888
5906 5909 5910 5911 5912 5913 5914 5915 5915 5915 5915 5915 5915 5914 5915 5914 5913 5913 5913 5913 5912 5912 5911 5911 5911 5909 5908 5907 5906 5906 5905 5904 5903 5902 5901 5899 5898 5897 5895 5893 5892 5890 5888 5886
5903 5906 5907 5908 5909 5910 5911 5911 5912 5912 5912 5912 5911 5911 5911 5911 5911 5910 5910 5910 5910 5910 5910 5909 5908 5907 5907 5906 5905 5904 5903 5902 5901 5900 5899 5897 5896 5894 5892 5891 5889 5888 5886 5884
5899 5901 5903 5904 5905 5906 5907 5908 5908 5909 5908 5908 5908 5908 5908 5907 5908 5908 5907 5907 5908 5908 5908 5906 5905 5904 5904 5904 5903 5902 5901 5900 5899 5898 5896 5895 5893 5892 5890 5889 5887 5885 5883 5881
5894 5897 5899 5900 5901 5902 5904 5905 5905 5905 5905 5905 5904 5907 5905 5905 5905 5905 5905 5904 5905 5904 5904 5903 5902 5901 5901 5900 5900 5898 5898 5898 5896 5895 5894 5892 5891 5889 5888 5886 5884 5882 5880 5878
5890 5892 5894 5896 5897 5898 5899 5900 5901 5901 5901 5901 5901 5904 5901 5902 5902 5902 5902 5901 5901 5902 5901 5901 5900 5899 5898 5898 5897 5896 5895 5894 5893 5892 5891 5889 5888 5886 5884 5883 5881 5879 5877 5875
5885 5888 5889 5892 5895 5895 5895 5895 5896 5897 5897 5896 5896 5899 5898 5898 5898 5898 5899 5899 5898 5898 5898 5897 5896 5896 5895 5895 5894 5892 5891 5890 5889 5888 5887 5885 5884 5882 5880 5879 5877 5875 5874 5872
5880 5882 5885 5887 5888 5889 5890 5891 5891 5892 5892 5892 5892 5893 5894 5895 5895 5895 5896 5896 5895 5895 5894 5893 5893 5892 5891 5891 5890 5889 5887 5886 5885 5884 5882 5881 5880 5878 5876 5874 5872 5871 5869 5867
5875 5877 5878 5880 5882 5883 5884 5886 5886 5887 5887 5888 5889 5889 5890 5891 5891 5891 5891 5891 5891 5891 5890 5889 5889 5888 5887 5886 5886 5885 5884 5882 5881 5880 5878 5877 5875 5873 5871 5869 5867 5865 5864 5862
5868 5871 5872 5875 5876 5878 5879 5881 5881 5881 5882 5883 5884 5885 5885 5885 5886 5886 5886 5886 5886 5885 5885 5885 5884 5883 5883 5882 5881 5880 5879 5878 5877 5875 5873 5872 5870 5868 5866 5864 5862 5860 5858 5856
5862 5864 5866 5868 5870 5872 5874 5875 5876 5876 5877 5878 5878 5880 5880 5881 5881 5881 5882 5881 5881 5880 5880 5880 5879 5878 5878 5877 5876 5875 5873 5872 5871 5870 5868 5866 5865 5863 5861 5858 5856 5855 5853 5850
5855 5857 5859 5861 5864 5865 5869 5868 5869 5870 5871 5872 5873 5874 5875 5875 5875 5876 5876 5876 5876 5875 5875 5874 5873 5872 5872 5871 5870 5869 5868 5866 5865 5864 5862 5861 5859 5858 5855 5852 5850 5848 5846 5844
5847 5849 5851 5853 5856 5858 5860 5861 5862 5863 5864 5866 5867 5868 5869 5869 5869 5869 5869 5870 5870 5869 5868 5867 5866 5866 5865 5864 5864 5863 5862 5860 5859 5858 5856 5855 5853 5851 5849 5847 5844 5842 5840 5838
5840 5842 5844 5846 5848 5850 5854 5855 5855 5858 5857 5859 5860 5861 5862 5862 5863 5863 5863 5863 5863 5863 5862 5861 5859 5858 5858 5858 5857 5856 5855 5854 5853 5852 5850 5848 5847 5845 5843 5840 5838 5835 5833 5830
5832 5834 5836 5838 5839 5842 5845 5847 5849 5851 5852 5852 5853 5853 5854 5855 5856 5857 5856 5856 5856 5855 5854 5853 5852 5851 5851 5850 5850 5849 5848 5847 5846 5845 5843 5841 5840 5838 5836 5833 5831 5828 5826 5823
5824 5826 5828 5830 5832 5836 5837 5839 5841 5842 5843 5844 5845 5846 5846 5847 5848 5848 5848 5848 5847 5846 5845 5845 5844 5843 5842 5842 5841 5840 5839 5839 5838 5837 5835 5834 5832 5830 5828 5826 5823 5820 5818 5816
5816 5818 5820 5822 5825 5827 5829 5831 5832 5833 5834 5835 5836 5837 5838 5838 5839 5839 5839 5839 5838 5838 5837 5837 5836 5835 5834 5833 5833 5832 5831 5831 5829 5828 5827 5826 5824 5822 5820 5818 5816 5813 5810 5808
5807 5809 5811 5812 5814 5817 5819 5821 5822 5824 5825 5826 5828 5829 5829 5830 5830 5830 5830 5830 5829 5828 5828 5828 5827 5826 5826 5825 5824 5823 5822 5821 5820 5820 5819 5817 5815 5814 5812 5809 5807 5805 5802 5800
5800 5801 5802 5804 5806 5808 5809 5811 5813 5815 5816 5817 5818 5820 5821 5821 5821 5820 5820 5820 5819 5819 5818 5818 5817 5816 5816 5815 5815 5814 5813 5812 5811 5810 5809 5808 5806 5804 5803 5800 5798 5796 5794 5791
5792 5793 5794 5796 5798 5799 5801 5802 5804 5805 5806 5807 5808 5809 5810 5810 5810 5810 5810 5810 5810 5809 5808 5807 5806 5806 5806 5805 5804 5804 5803 5802 5802 5801 5800 5798 5797 5795 5793 5791 5789 5787 5785 5782
Wind_Speed
11 9 6 5 4 3 2 1 1 1 4 6 7 8 8 9 9 9 9 10 10 11 11 10 9 9 9 9 8 7 7 6 6 6 6 6 7 7 7 7 7 7 6 6
11 8 6 6 5 6 5 4 4 3 4 5 6 6 7 7 7 7 8 8 9 10 10 10 10 10 8 8 8 7 6 5 5 5 6 6 7 7 7 7 7 7 7 7
10 8 7 7 7 7 8 7 6 5 6 6 6 6 6 7 7 6 7 8 9 8 8 9 9 9 8 8 7 7 6 6 6 6 6 6 7 7 8 8 9 8 8 8
12 10 9 9 8 9 9 8 8 8 8 7 7 6 6 7 7 6 7 7 9 9 7 8 9 8 7 7 7 6 7 6 6 6 6 6 6 7 8 9 9 9 8 8
12 11 10 10 8 9 9 9 10 10 9 9 7 7 6 7 7 6 6 7 8 9 8 7 8 9 7 6 6 6 6 6 5 5 6 6 7 8 8 9 9 10 10 9
13 12 11 10 9 9 9 11 11 11 10 8 6 8 8 8 9 8 7 7 8 9 8 7 8 8 6 6 6 7 7 7 6 6 6 7 7 8 8 9 10 10 11 11
14 13 12 11 11 10 11 11 12 12 11 8 7 9 9 9 9 9 8 8 8 9 7 6 7 6 6 6 7 7 8 8 8 7 8 8 9 9 10 10 11 11 12 12
15 14 12 12 12 10 10 11 12 12 11 10 9 11 9 9 10 10 9 9 8 9 8 7 7 8 7 7 8 8 8 8 9 9 9 9 10 10 11 11 11 12 12 12
15 14 13 14 13 12 12 13 13 13 12 12 13 12 12 11 10 10 9 9 9 9 9 10 9 9 9 8 9 9 9 8 9 10 10 11 11 11 11 11 12 12 13 13
16 16 16 15 15 15 15 14 14 14 14 15 14 14 12 12 11 11 11 9 10 11 10 11 11 12 11 9 9 9 9 9 9 10 11 12 12 11 11 12 12 13 13 13
18 18 17 18 18 17 15 15 15 16 16 16 16 15 13 13 12 11 11 11 12 12 12 12 13 14 11 10 10 8 9 10 10 11 12 13 13 13 13 13 13 13 14 14
20 20 19 19 19 19 17 16 16 17 17 17 17 16 13 13 12 12 12 12 13 13 13 13 13 12 11 11 12 11 11 11 12 13 13 14 14 14 14 15 14 14 14 15
20 21 20 21 21 21 20 19 19 19 19 19 18 17 16 14 13 13 14 13 13 14 14 14 13 12 12 12 13 14 13 12 13 14 14 15 15 15 16 16 15 15 16 16
23 23 23 22 22 22 22 21 21 21 22 21 20 19 18 17 16 15 15 15 15 15 15 15 13 13 14 15 15 14 14 13 14 14 15 16 16 16 17 17 17 17 16 17
25 25 24 24 24 24 23 22 22 22 23 23 22 21 20 18 17 18 17 17 17 17 17 17 17 16 15 15 15 15 16 15 14 15 16 17 17 17 17 17 17 18 18 18
27 26 26 26 26 26 25 22 21 23 24 24 23 22 21 20 19 18 18 18 18 18 18 18 18 17 16 16 16 16 16 17 17 17 17 17 18 19 19 19 19 19 19 19
29 28 28 28 28 27 27 24 24 24 25 24 24 23 22 21 20 21 20 20 20 19 19 19 19 19 19 19 18 17 18 20 20 19 18 19 19 20 20 20 20 20 20 21
31 30 29 30 29 29 28 27 26 26 26 26 25 23 23 22 23 23 22 21 21 21 21 21 22 21 21 21 20 19 20 20 20 19 19 19 20 20 21 22 22 22 22 22
31 32 31 30 29 29 28 27 26 26 27 27 27 25 24 25 25 25 24 23 23 23 24 24 24 23 23 23 21 20 21 21 20 20 20 21 22 22 23 24 24 24 24 24
32 32 32 31 31 31 29 27 26 27 28 27 27 26 26 27 27 27 26 26 26 26 25 26 26 25 25 24 23 22 22 22 22 22 23 23 24 24 25 25 25 25 26 27
33 33 32 31 32 32 30 29 28 29 29 28 27 27 26 28 28 28 29 29 29 28 27 27 27 26 26 26 25 25 23 23 24 25 25 25 25 25 26 26 26 27 27 28
32 32 33 32 33 32 30 30 30 30 29 29 29 28 28 29 29 29 30 30 30 30 29 28 28 28 28 28 27 26 26 26 26 27 27 27 27 27 27 28 28 28 28 29
33 34 34 35 34 33 32 32 32 32 32 32 31 30 30 29 29 30 31 31 31 31 31 30 30 30 30 30 29 29 29 29 28 28 28 28 28 28 28 29 29 30 30 30
34 34 33 33 33 33 32 33 33 34 33 33 32 31 31 31 31 31 31 32 33 33 34 33 32 32 32 32 32 31 31 30 31 30 30 30 30 30 30 30 31 31 31 31
32 33 34 34 33 33 32 33 33 34 35 34 34 34 33 33 33 33 33 32 32 33 33 33 33 33 33 33 33 33 32 32 32 32 31 31 31 31 31 31 31 31 32 31
32 33 33 33 33 34 34 34 33 33 33 33 33 34 34 34 35 34 32 31 32 33 33 33 33 33 33 33 33 33 33 33 32 32 31 31 32 32 32 32 32 32 32 32
Wind_Direction
187 181 167 170 174 186 211 224 187 254 320 330 335 338 342 355 2 11 16 21 24 24 22 19 24 23 22 25 27 32 38 39 37 35 30 26 25 25 23 20 22 18 17 17
193 184 174 177 195 215 234 236 228 246 279 301 314 327 328 333 343 356 8 16 13 15 20 18 13 15 21 26 24 22 24 25 20 16 15 14 15 13 11 12 11 13 10 2
196 193 193 198 208 221 233 236 238 244 262 266 289 309 320 321 327 338 351 355 354 2 11 10 7 11 17 21 23 19 17 15 11 5 3 6 10 7 4 4 5 5 2 359
202 202 205 211 218 221 226 229 240 249 260 255 265 283 309 317 319 321 326 335 343 344 357 6 2 -0 5 10 15 15 12 10 6 2 358 358 0 357 356 358 1 359 356 352
205 212 218 217 221 223 231 236 242 250 253 246 252 270 289 291 298 306 314 322 329 337 350 357 355 354 356 359 1 1 2 3 3 0 355 355 353 348 346 349 350 349 346 341
210 214 219 221 221 223 240 246 245 245 247 251 259 282 286 281 278 284 297 305 315 324 338 348 349 353 352 344 347 348 349 351 349 348 347 345 344 343 340 337 338 339 339 335
212 218 219 222 225 234 241 246 243 237 238 242 257 272 283 279 276 281 291 295 305 313 321 342 344 344 344 340 334 341 342 342 339 335 335 336 334 335 334 332 331 331 331 332
218 221 227 227 231 242 246 247 252 250 251 246 259 268 273 275 278 282 290 292 296 302 305 325 331 333 332 338 333 327 331 335 334 330 326 326 325 324 325 326 327 327 326 326
227 226 229 234 234 233 238 245 254 258 259 258 260 261 264 268 273 280 285 288 286 294 300 307 314 319 321 323 324 324 324 324 325 326 324 320 317 319 320 320 321 322 324 325
229 228 228 235 236 231 235 245 249 254 259 261 260 259 263 265 271 277 279 283 287 292 293 298 305 311 312 313 316 316 313 313 313 315 320 320 319 317 316 317 319 321 323 325
232 235 230 232 233 232 235 243 250 255 260 263 265 260 259 263 267 272 273 279 289 294 298 302 303 310 308 307 310 309 308 310 310 310 313 313 313 313 313 313 314 315 316 317
232 236 232 230 233 238 240 243 248 251 258 261 265 263 260 258 265 269 276 283 285 290 290 294 300 301 303 303 303 305 303 305 308 309 310 310 309 307 305 306 308 308 309 311
235 235 235 234 232 235 239 243 246 249 255 260 263 260 257 257 260 264 271 276 279 285 285 290 296 298 298 302 301 302 301 300 303 304 305 307 307 305 303 303 303 305 306 307
238 237 236 236 234 234 238 242 246 248 252 256 259 260 258 258 263 266 267 269 274 283 287 290 294 296 297 300 302 299 299 297 296 297 301 305 306 306 303 301 300 301 301 303
239 240 239 237 235 237 239 242 247 249 250 255 257 260 260 264 266 269 267 271 277 283 289 292 295 292 292 295 295 295 297 296 293 293 296 299 301 303 304 304 302 301 299 298
237 240 238 236 237 239 240 241 245 250 253 257 259 260 260 261 262 267 269 274 279 282 287 291 289 290 289 292 294 294 293 293 295 296 295 297 300 301 300 300 301 301 299 298
240 242 241 239 239 242 242 241 243 247 250 255 258 262 262 262 264 265 269 274 277 282 284 285 285 287 289 291 291 287 291 291 293 294 294 296 298 300 300 299 298 299 299 300
243 244 246 245 241 242 246 245 245 247 249 252 257 259 262 263 267 268 269 273 275 278 280 282 282 282 285 288 288 290 291 292 291 291 293 295 297 298 298 299 300 299 297 298
244 246 247 247 245 244 245 248 248 248 249 250 254 258 262 264 267 269 268 272 275 278 280 281 282 282 283 284 284 286 290 289 288 289 291 293 295 296 297 298 297 297 297 298
244 246 247 248 247 247 246 246 247 249 249 251 254 258 262 265 266 267 269 272 273 277 279 282 282 281 280 282 282 283 284 286 286 288 289 290 293 294 296 297 297 297 298 299
243 245 246 247 247 249 249 245 247 249 251 252 256 259 263 265 266 268 271 272 274 276 277 279 281 283 281 281 281 281 281 284 284 285 286 288 291 294 295 297 297 298 298 299
245 245 245 247 247 249 251 251 249 252 253 253 256 259 261 264 266 268 271 272 272 275 278 280 281 283 281 279 279 278 280 282 282 281 283 286 289 292 294 296 296 296 297 297
246 248 248 248 249 250 251 252 252 254 255 255 256 258 260 262 266 269 271 272 273 274 276 277 279 281 279 277 277 278 279 280 281 280 281 284 287 289 291 292 294 295 296 296
247 249 251 251 250 250 251 253 254 255 254 255 257 258 262 266 267 269 272 274 274 275 276 277 277 278 277 276 276 277 278 279 280 280 281 284 286 288 289 290 291 292 293 294
248 251 252 253 253 253 254 257 258 258 256 256 257 260 262 265 267 270 272 273 273 275 277 277 276 275 274 274 274 275 276 276 278 279 280 281 284 286 286 287 288 290 291 291
248 250 253 254 254 255 257 257 259 260 260 261 261 263 264 266 270 272 274 275 274 273 275 276 274 273 272 272 273 274 273 274 276 278 279 280 282 284 285 286 287 289 290 289